Location: *
(28.3744°N, 81.5492°W)
Time: 03:47:07
(UTC+00:00)

Cosmos 1328 Rocket - Pass Details

Date: 15 June 2025
Orbit: 595 x 619 km, 82.5° (Epoch: 11 July)

Event Time Altitude Azimuth Distance (km) Brightness Sun altitude
Exits shadow 01:56:25 36° 141° (SE) 981 4.0 -17.6°
Maximum altitude 01:57:44 48° 93° (E) 798 3.8 -17.9°
Drops below altitude 10° 02:01:58 10° 19° (NNE) 1,979 6.4 -18.6°
Sets 02:04:15 0° 13° (NNE) 2,890 7.4 -18.9°
